Warrenton, VA

8:00 PM EDT on May 29, 2017 (GMT -0400)
Warrenton

Weather History for KHWY - October, 2012

Change the Weather History Date:

Tuesday, October 23, 2012

  Actual Average (KHEF) Record (KHEF)
Temperature  
Mean Temperature 64 °F -  
Max Temperature 83 °F 62 °F 80 °F (2001)
Min Temperature 45 °F 39 °F 24 °F (1997)
Degree Days  
Heating Degree Days 1    
Growing Degree Days 14 (Base 50)    
Moisture  
Dew Point 57 °F    
Average Humidity 81    
Maximum Humidity 100    
Minimum Humidity 49    
Precipitation  
Precipitation 0.00 in - - ()
Sea Level Pressure  
Sea Level Pressure 30.08 in    
Wind  
Wind Speed 1 mph (SSW)    
Max Wind Speed 7 mph    
Max Gust Speed -    
Visibility 10 miles    
Events      
Averages and records for this station are not official NWS values.
T = Trace of Precipitation, MM = Missing Value Source: NWS Daily Summary

Daily Weather History Graph

Daily Weather History Graph

Search for Another Location

Airport or City:

Trip Planner

Search our weather history database for the weather conditions in past years. The results will help you decide how hot, cold, wet, or windy it might be!

Date:

Astronomy

Oct. 23, 2012 Rise Set
Actual Time 7:28 AM EDT 6:21 PM EDT
Civil Twilight 7:01 AM EDT 6:48 PM EDT
Nautical Twilight 6:30 AM EDT 7:19 PM EDT
Astronomical Twilight 5:59 AM EDT 7:49 PM EDT
Moon 3:00 PM EDT (10/23) 1:22 AM EDT (10/23)
Length of Visible Light 11h 46m
Length of Day
10h 52m
Waxing Gibbous, 66% of the Moon is Illuminated
Oct 23
Waxing Gibbous
Oct 29
Full
Nov 6
Last Quarter
Nov 13
New
Nov 20
First Quarter

Hourly Weather History & Observations

Time (EDT) Temp. Heat Index Dew Point Humidity Pressure Visibility Wind Dir Wind Speed Gust Speed Precip Events Conditions
12:15 AM 45.7 °F - 45.7 °F 100% 30.13 in 10.0 mi Calm Calm - N/A   Clear
12:35 AM 46.4 °F - 46.4 °F 100% 30.13 in 10.0 mi Calm Calm - N/A   Clear
1:35 AM 46.9 °F - 46.9 °F 100% 30.13 in 10.0 mi Calm Calm - N/A   Clear
2:15 AM 45.7 °F - 45.7 °F 100% 30.11 in 10.0 mi Calm Calm - N/A   Clear
2:55 AM 46.4 °F - 46.4 °F 100% 30.11 in 10.0 mi Calm Calm - N/A   Clear
3:35 AM 48.4 °F - 48.4 °F 100% 30.11 in 10.0 mi Calm Calm - N/A   Clear
3:55 AM 47.8 °F - 47.8 °F 100% 30.11 in 10.0 mi SSW 3.5 mph - N/A   Clear
4:15 AM 48.7 °F - 48.7 °F 100% 30.10 in 10.0 mi SW 3.5 mph - N/A   Clear
4:35 AM 48.6 °F - 48.4 °F 99% 30.10 in 10.0 mi WSW 3.5 mph - N/A   Clear
4:55 AM 47.1 °F - 47.1 °F 100% 30.10 in 10.0 mi Calm Calm - N/A   Clear
5:15 AM 47.1 °F - 47.1 °F 100% 30.11 in 10.0 mi Calm Calm - N/A   Clear
5:35 AM 46.8 °F - 46.8 °F 100% 30.11 in 10.0 mi Calm Calm - N/A   Clear
5:55 AM 45.5 °F - 45.5 °F 100% 30.11 in 10.0 mi Calm Calm - N/A   Clear
6:15 AM 46.4 °F - 46.4 °F 100% 30.10 in 10.0 mi Calm Calm - N/A   Clear
6:55 AM 45.9 °F - 45.9 °F 100% 30.11 in 10.0 mi Calm Calm - N/A   Clear
7:15 AM 45.9 °F - 45.9 °F 100% 30.11 in 10.0 mi Calm Calm - N/A   Clear
7:35 AM 46.4 °F - 46.4 °F 100% 30.11 in 10.0 mi Calm Calm - N/A   Clear
8:15 AM 48.7 °F - 48.7 °F 100% 30.13 in 10.0 mi Calm Calm - N/A   Clear
9:55 AM 60.6 °F - 55.4 °F 83% 30.13 in 10.0 mi Calm Calm - N/A   Scattered Clouds
10:15 AM 63.1 °F - 56.3 °F 78% 30.14 in 10.0 mi Calm Calm - N/A   Scattered Clouds
10:35 AM 64.4 °F - 56.7 °F 76% 30.13 in 10.0 mi Calm Calm - N/A   Scattered Clouds
11:15 AM 70.0 °F - 58.8 °F 68% 30.11 in 10.0 mi Calm Calm - N/A   Clear
11:55 AM 72.7 °F - 59.4 °F 63% 30.12 in 10.0 mi Calm Calm - N/A   Scattered Clouds
12:15 PM 74.5 °F - 60.6 °F 62% 30.11 in 10.0 mi Calm Calm - N/A   Scattered Clouds
12:35 PM 77.0 °F - 62.1 °F 60% 30.10 in 10.0 mi South 3.5 mph - N/A   Clear
12:55 PM 77.9 °F - 61.2 °F 56% 30.10 in 10.0 mi Calm Calm - N/A   Clear
1:15 PM 79.5 °F - 60.3 °F 52% 30.08 in 10.0 mi Calm Calm - N/A   Clear
1:35 PM 79.7 °F - 59.7 °F 50% 30.08 in 10.0 mi Calm Calm - N/A   Clear
1:55 PM 81.0 °F 81.9 °F 61.7 °F 52% 30.07 in 10.0 mi SW 3.5 mph - N/A   Clear
2:15 PM 81.0 °F 81.9 °F 61.7 °F 52% 30.06 in 10.0 mi SSW 5.8 mph - N/A   Clear
2:35 PM 82.0 °F 83.0 °F 62.4 °F 51% 30.05 in 10.0 mi SW 4.6 mph - N/A   Clear
2:55 PM 83.5 °F 84.3 °F 62.4 °F 49% 30.05 in 10.0 mi SSW 3.5 mph - N/A   Clear
3:15 PM 82.8 °F 83.6 °F 62.2 °F 50% 30.04 in 10.0 mi South 6.9 mph - N/A   Clear
3:35 PM 82.4 °F 83.4 °F 62.4 °F 51% 30.04 in 10.0 mi SSW 5.8 mph - N/A   Clear
3:55 PM 81.5 °F 82.7 °F 62.6 °F 53% 30.04 in 10.0 mi SW 4.6 mph - N/A   Clear
4:15 PM 83.3 °F 84.1 °F 62.4 °F 49% 30.03 in 10.0 mi SSW 5.8 mph - N/A   Clear
4:35 PM 83.1 °F 83.9 °F 62.2 °F 49% 30.03 in 10.0 mi SSW 5.8 mph - N/A   Clear
4:55 PM 80.8 °F 82.0 °F 63.0 °F 54% 30.03 in 10.0 mi Calm Calm - N/A   Clear
5:15 PM 81.7 °F 82.7 °F 62.4 °F 52% 30.03 in 10.0 mi SSW 4.6 mph - N/A   Clear
5:35 PM 80.2 °F 81.4 °F 62.4 °F 54% 30.03 in 10.0 mi South 3.5 mph - N/A   Clear
5:55 PM 77.0 °F - 62.6 °F 61% 30.03 in 10.0 mi Calm Calm - N/A   Clear
6:15 PM 72.3 °F - 63.3 °F 73% 30.04 in 10.0 mi Calm Calm - N/A   Clear
6:35 PM 66.7 °F - 62.1 °F 85% 30.04 in 10.0 mi Calm Calm - N/A   Clear
6:55 PM 67.8 °F - 62.1 °F 82% 30.04 in 10.0 mi Calm Calm - N/A   Clear
7:15 PM 65.5 °F - 62.1 °F 89% 30.05 in 10.0 mi Calm Calm - N/A   Clear
7:35 PM 66.0 °F - 61.9 °F 86% 30.05 in 10.0 mi Calm Calm - N/A   Clear
7:55 PM 63.5 °F - 61.3 °F 93% 30.05 in 10.0 mi Calm Calm - N/A   Clear
8:15 PM 62.4 °F - 61.3 °F 96% 30.06 in 10.0 mi Calm Calm - N/A   Clear
8:35 PM 63.9 °F - 61.9 °F 93% 30.06 in 10.0 mi Calm Calm - N/A   Clear
8:55 PM 62.2 °F - 61.2 °F 96% 30.06 in 10.0 mi Calm Calm - N/A   Clear
9:15 PM 60.6 °F - 60.6 °F 100% 30.07 in 10.0 mi Calm Calm - N/A   Clear
9:35 PM 60.8 °F - 60.6 °F 99% 30.07 in 10.0 mi Calm Calm - N/A   Clear
9:55 PM 59.4 °F - 59.4 °F 100% 30.08 in 10.0 mi Calm Calm - N/A   Clear
10:15 PM 59.4 °F - 59.4 °F 100% 30.08 in 10.0 mi South 3.5 mph - N/A   Clear
10:35 PM 63.5 °F - 60.3 °F 89% 30.07 in 10.0 mi South 3.5 mph - N/A   Clear
10:55 PM 60.1 °F - 58.6 °F 95% 30.07 in 10.0 mi Calm Calm - N/A   Clear
11:15 PM 58.8 °F - 58.6 °F 99% 30.07 in 10.0 mi South 3.5 mph - N/A   Clear
11:35 PM 57.0 °F - 57.0 °F 100% 30.07 in 10.0 mi Calm Calm - N/A   Clear
11:55 PM 58.1 °F - 57.7 °F 99% 30.07 in 10.0 mi Calm Calm - N/A   Clear